Location: Oberkirch
(48.5323°N, 8.0787°E)
Time: 12:02:41
(UTC+00:00)

METEOR M2 - Visible Passes

Search period start: 15 March 2026 00:00
Search period end: 25 March 2026 00:00
Orbit: 817 x 824 km, 98.5° (Epoch: 14 March)

Date Brightness Start Highest point End Pass type
(mag) Time Alt. Az. Time Alt. Az. Time Alt. Az.
15 Mar ? 03:01:42 10° NE 03:06:22 29° E 03:11:01 10° SSE visible
15 Mar ? 04:41:32 10° N 04:46:39 46° WNW 04:51:46 10° SW visible
16 Mar ? 02:41:33 10° NE 02:45:30 20° E 02:49:24 10° SE visible
16 Mar ? 04:20:45 10° N 04:26:06 66° WNW 04:31:25 10° SSW visible
17 Mar ? 02:21:55 10° ENE 02:24:33 14° E 02:27:11 10° ESE visible
17 Mar ? 04:00:03 10° NNE 04:05:28 86° ESE 04:10:51 10° SSW visible
18 Mar ? 03:39:26 10° NNE 03:44:47 60° E 03:50:05 10° S visible
19 Mar ? 03:18:57 10° NNE 03:24:01 41° E 03:29:04 10° SSE visible
19 Mar ? 04:59:15 10° N 05:04:03 34° WNW 05:08:51 10° SW visible
20 Mar ? 02:58:37 10° NE 03:03:13 28° E 03:07:47 10° SSE visible
20 Mar ? 04:38:23 10° N 04:43:33 48° WNW 04:48:41 10° SW visible
21 Mar ? 02:38:32 10° NE 02:42:20 19° E 02:46:07 10° SE visible
21 Mar ? 04:17:36 10° N 04:22:59 70° WNW 04:28:18 10° SSW visible
22 Mar ? 02:19:00 10° ENE 02:21:23 13° E 02:23:45 10° ESE visible
22 Mar ? 03:56:55 10° NNE 04:02:20 82° ESE 04:07:44 10° SSW visible
23 Mar ? 03:36:19 10° NNE 03:41:38 57° E 03:46:55 10° S visible
24 Mar ? 03:15:51 10° NNE 03:20:53 39° E 03:25:52 10° SSE visible
